Regional Weather Roundup
Issued by NWS Grand Forks, ND

Home | Current Version | Previous Version | Graphics & Text | Print | Product List | Glossary On
Versions: 1 2 3 4 5 6 7 8 9 10 11 12 13 14 15 16 17 18 19 20 21 22 23 24 25 26 27 28 29 30 31 32 33 34 35 36 37 38 39 40 41 42 43 44 45 46 47 48 49 50
405
ASUS43 KFGF 292110
RWRFGF
PRAIRIE TO PINES  WEATHER ROUNDUP
NATIONAL WEATHER SERVICE EASTERN NORTH DAKOTA/GRAND FORKS ND
400 PM CDT MON MAY 29 2017

 **SATELLITE DATA USED TO AUGMENT SKY COVER AT AUTOMATED STATIONS**
 *****  WEATHER ACROSS EASTERN NORTH DAKOTA  *****

CITY           SKY/WX    TMP DP  RH WIND       PRES   REMARKS
GRAND FORKS    CLOUDY    57  52  83 W14       29.87S
GRAND FRKS AFB CLOUDY    54  50  85 N12G18    29.88S
DEVILS LAKE    CLOUDY    55  45  68 NW23G32   29.92F
FARGO          LGT RAIN  55  49  80 W15       29.89S
WAHPETON ARPT  MOCLDY    54  48  82 NW17G23   29.92R
$$

 ***** WEATHER ACROSS CENTRAL AND WESTERN NORTH DAKOTA  *****

CITY           SKY/WX    TMP DP  RH WIND       PRES   REMARKS
BISMARCK       CLOUDY    64  36  35 NW24G30   30.02F
MINOT          CLOUDY    67  37  33 NW23G31   29.98F
JAMESTOWN      CLOUDY    56  41  57 NW18G30   29.95
MINOT AFB      PTSUNNY   65  35  33 NW24G35   29.97S
GARRISON         N/A     61  36  39 N26G36    30.00F
WILLISTON      PTSUNNY   68  33  27 N23G29    30.08F
DICKINSON      PTSUNNY   61  31  32 NW20G26   30.06F
HETTINGER      FAIR      65  31  28 NW18G31   30.09F
$$

 *****  OTHER AIRPORT OBSERVATIONS IN OUR AREA  *****

CITY           SKY/WX    TMP DP  RH WIND       PRES   REMARKS
WALHALLA       NOT AVBL
GRAFTON AIRPOR MOCLDY    52  50  93 NW15      29.90R
VALLEY CITY AR MOCLDY    57  46  67 NW18G28   29.95R
CANDO          NOT AVBL
CAVALIER APRT  MOCLDY    54  45  71 NW17G24   29.88S
GWINNER        MOCLDY    54  48  82 MISG      29.94S HAZE
SHEYENNE NWR     N/A     57  48  72 NW8       29.95S
ROLLA          MOCLDY    52  46  82 NW22      29.94F
 ***** THE ABOVE OBSERVATIONS ARE NON NWS ARE NOT QUALITY
       CONTROLLED AND MAY MIS-REPORT RAIN FOR SNOW...
$$

  *****  WEATHER ACROSS NORTHERN MINNESOTA  *****

CITY           SKY/WX    TMP DP  RH WIND       PRES   REMARKS
FLAG ISLAND    CLOUDY    50  39  66 N20       29.77S
WARROAD        CLOUDY    54  43  66 NW10G17   29.80S
ROSEAU         PTSUNNY   55  43  62 NW18G26   29.81S
HALLOCK        CLOUDY    52  45  76 NW17G24   29.86S
THF RVR FALLS  CLOUDY    55  45  68 NW21G28   29.85S
BAUDETTE       CLOUDY    53  41  63 NW17      29.78R
WASKISH        CLOUDY    55  43  62 NW14G22   29.79S
CROOKSTON      CLOUDY    55  46  71 N16       29.87R
STEPHEN NDAWN    N/A     52  45  76 N20         N/A
GREENBUSH NDAW   N/A     52  43  71 NW18        N/A
$$
  *****  WEATHER ACROSS CENTRAL AND WEST MINNESOTA  *****

CITY           SKY/WX    TMP DP  RH WIND       PRES   REMARKS
FOSSTON        CLOUDY    54  46  76 NW14G20   29.85S
BEMIDJI        CLOUDY    56  45  66 W21G28    29.82S
PARK RAPIDS    CLOUDY    57  43  59 W20       29.83F
ELBOW LAKE     LGT RAIN  54  51  88 W14G22    29.90F
WADENA         CLOUDY    55  46  71 NW12      29.86S
DETROIT LAKES  RAIN      50  48  93 NW17G23   29.89R
MOORHEAD       CLOUDY    55  46  71 NW17      29.90S
FERGUS FALLS   PTSUNNY   57  48  72 NW17G24   29.88S
MORRIS MN      FAIR      61  46  59 NW17      29.90S
STAPLES        CLOUDY    55  43  62 NW16      29.85F
$$
  *****  WEATHER ELSEWHERE ACROSS MINNESOTA  *****

CITY           SKY/WX    TMP DP  RH WIND       PRES   REMARKS
DULUTH         LGT RAIN  54  50  86 NW17G24   29.73S
INTRNTL FALLS  CLOUDY    54  42  64 NW15      29.74R
ELY            CLOUDY    52  50  93 W8        29.70R FOG
CLOQUET        CLOUDY    57  45  62 W13G18    29.75S
WHEATON        HVY RAIN  55  50  82 NW16G22   29.95R
BRAINERD       CLOUDY    55  44  66 NW15      29.84R
HIBBING        LGT RAIN  52  48  86 W12       29.75R
ALEXANDRIA     CLOUDY    57  46  66 NW18      29.89F
SAINT CLOUD    CLOUDY    58  47  66 NW20G31   29.84R
MINNEAPOLIS    PTSUNNY   64  47  53 W16G28    29.81F
$$

  *****  WEATHER ACROSS SOUTH DAKOTA  *****

CITY           SKY/WX    TMP DP  RH WIND       PRES   REMARKS
SIOUX FALLS    PTSUNNY   64  46  52 NW22G32   29.98S
BROOKINGS      CLOUDY    58  46  64 NW21      29.98R
WATERTOWN      LGT RAIN  58  45  62 NW16      29.96S
HURON          CLOUDY    64  44  48 NW20      30.01F
SISSETON         N/A     63  47  55 NW25G36   29.92F
ABERDEEN       CLOUDY    64  36  35 NW25G33   29.99S
MITCHELL       CLOUDY    65  44  46 NW13      30.03F
PIERRE         PTSUNNY   67  35  30 NW17G26   30.03F
MOBRIDGE       CLOUDY    69  35  28 NW20G26   30.01S
RAPID CITY     FAIR      69  32  25 N21G31    30.12F
$$

  *****  SOME WEATHER IN NEARBY STATES *****

CITY           SKY/WX    TMP DP  RH WIND       PRES   REMARKS
GLASGOW MT     FAIR      70  29  21 N16G26    30.14F
GREAT FALLS MT FAIR      76  44  32 VRB3      30.14F
CHEYENNE WY    CLOUDY    60  39  45 MISG      30.24F
SCOTTSBLUFF NE FAIR      73  33  23 NW15G31   30.15F
OMAHA NE       FAIR      75  37  25 NW21G28   29.99S
DES MOINES IA  FAIR      74  39  28 W25       29.92F
DAVENPORT IA   FAIR      75  42  30 W25G36    29.87F
CHICAGO IL     FAIR      75  43  31 W22G30    29.82S
EAU CLAIRE WI  FAIR      62  47  57 W20G26    29.78R
LA CROSSE WI   FAIR      66  53  63 NW7       29.81F
$$

  *****  SOME NATIONAL WEATHER *****

CITY           SKY/WX    TMP DP  RH WIND       PRES   REMARKS
LA GUARDIA NY  CLOUDY    57  52  83 NE10      30.02S
RALEIGH NC     PTSUNNY   84  62  47 NW5       29.97S
ATLANTA GA     LGT RAIN  72  69  90 N6        30.03F
NEW ORLEANS LA CLOUDY    84  70  62 N6        30.01R
OKLAHOMA CITY  FAIR      87  43  21 SW9       30.03F
ALBUQUERQUE NM PTSUNNY   80  32  17 SW18G24   30.11F
SALT LAKE CITY FAIR      81  36  19 VRB5      30.09F
LOS ANGELES CA PTSUNNY   66  56  70 W9        29.91F
BOISE ID       FAIR      85  39  19 SE8       30.04F
SEATTLE WA     FAIR      67  54  63 CALM      29.99F
$$

*** WEATHER ACROSS MANITOBA...SASKATCHEWAN AND ONTARIO ***
                ***ONTARIO***

CITY           SKY/WX    TMP DP  RH WIND       PRES   REMARKS
GERALDTON      PTSUNNY   61  48  63 S9        29.53S
THUNDER BAY    LGT RAIN  55  54  94 W7        29.58R
SIOUX LOOKOUT  LGT RAIN  50  48  93 NW12G17   29.65R
TORONTO        PTSUNNY   77  45  31 SW15      29.79S
BIG TROUT LK     N/A     46  45  93 NW7       29.60S
PICKLE LAKE    LGT RAIN  52  52 100 NW6       29.57S FOG
DRYDEN         CLOUDY    54  46  76 W9        29.67S
KENORA         CLOUDY    50  39  66 NW8       29.75R
$$
                *** MANITOBA***

CITY           SKY/WX    TMP DP  RH WIND       PRES   REMARKS
BRANDON        CLOUDY    54  43  66 N16G28    29.93S
DAUPHIN        CLOUDY    48  43  81 N18G26    29.96R
ISLAND LAKE    LGT RAIN  43  41  93 NW17      29.77S
PILOT MOUND      N/A     48  45  87 N15G21      N/A
THE PAS        LGT RAIN  45  41  87 N14G22    30.02S
THOMPSON       CLOUDY    45  39  81 N12G24    29.92S
WINNIPEG       LGT RAIN  48  41  76 NW18      29.86S
LYNN LAKE      CLOUDY    48  41  76 N13G22    30.08F
CHURCHILL      CLOUDY    36  34  93 N17       29.94S
GILLAM         CLOUDY    46  36  66 N20       29.81S
$$
                ***SASKATCHEWAN***

CITY           SKY/WX    TMP DP  RH WIND       PRES   REMARKS
ESTEVAN        MOSUNNY   64  30  27 N25G36    30.03F
KINDERSLEY     SUNNY     66  28  24 VRB6      30.15F
LLOYDMINSTER   SUNNY     64  32  29 NW6G21    30.18F
PRINCE ALBERT  MOSUNNY   66  30  26 NW18G30   30.10F
REGINA         MOSUNNY   66  27  22 NW29G38   30.07F
YORKTON        CLOUDY    57  39  51 N17G28    30.02S
N. BATTLEFORD  SUNNY     64  27  24 N17G23    30.17F
LA RONGE       MOSUNNY   61  34  36 NW15      30.15F
SASKATOON      SUNNY     66  28  24 N12G22    30.13F
SWIFT CURRENT  SUNNY     64  28  25 N15G23    30.15F
$$
NOTE: THESE ARE AUTOMATED STATIONS WITH LIMITED QUALITY CONTROL
      "FAIR" INDICATES FEW OR NO CLOUDS BELOW 12,000 FEET WITH NO
      SIGNIFICANT WEATHER AND/OR OBSTRUCTIONS TO VISIBILITY.
      SKY/WX - SKY CONDITION AND SIGNIFICANT WEATHER.
      TMP - AIR TEMPERATURE.    DP   - DEWPOINT TEMPERATURE.
      RH  - RELATIVE HUMIDITY.  PRES - PRESSURE.
      HX  - HEAT INDEX.         WCI  - WIND CHILL INDEX.
$




USA.gov is the U.S. government's official web portal to all federal, state and local government web resources and services.